User: anonymous
Location: Mentone
(34.5413°N, 85.5351°W)
Time: 23:01:34
(UTC-05:00)
Language:

SL-8 R/B - Orbit

View from above orbital plane
View from above orbital plane
View from above satellite
View from above satellite

Ground track
Ground track

The orbit data is extracted from the following two-line orbital elements,

1 33066U 08031G   14273.82785006  .00000281  00000-0  80527-4 0  9068
2 33066 048.4445 061.2372 0008311 251.4501 254.5373 14.68887807337123
Epoch (UTC): 30 September 2014 19:52:06
Eccentricity: 0.0008311
inclination: 48.4445°
perigee height: 659 km
apogee height: 670 km
right ascension of ascending node: 61.2372°
argument of perigee: 251.4501°
revolutions per day: 14.68887807
mean anomaly at epoch: 254.5373°
orbit number at epoch: 33712

The dashed part of the orbit path shows where the satellite is in the earth's shadow,  

DLR